GW7654 Weather Reports


Display with metric or nautical units.
time (UTC)temp
F
wind
direction
speed
MPH
gust
MPH
rain 1hr
in
rain 24hr
in
rain mn
in
humidity
%
barometer
mb
20260902215429 82 90 5.0 7.0 0.00 0.00 0.00 26 1012.9
20260902214928 82 41 6.0 9.0 0.00 0.00 0.00 25 1012.9
20260902214428 82 41 6.0 9.0 0.00 0.00 0.00 25 1012.9
20260902213928 82 41 6.0 9.0 0.00 0.00 0.00 25 1012.9
20260902213430 82 64 7.0 9.0 0.00 0.00 0.00 25 1012.9
20260902212929 82 57 5.0 6.0 0.00 0.00 0.00 25 1013.2
20260902212430 82 87 6.0 7.0 0.00 0.00 0.00 25 1012.9
20260902211929 82 78 4.0 7.0 0.00 0.00 0.00 25 1013.2
20260902211429 82 55 8.0 9.0 0.00 0.00 0.00 25 1013.2
20260902210929 82 87 3.0 3.0 0.00 0.00 0.00 24 1013.2
20260902210428 82 89 5.0 7.0 0.00 0.00 0.00 24 1013.2
20260902205929 82 104 3.0 3.0 0.00 0.00 0.00 25 1013.5
20260902205428 83 74 5.0 7.0 0.00 0.00 0.00 24 1013.2
20260902204929 84 3 10.0 13.0 0.00 0.00 0.00 24 1012.9
20260902204430 84 32 1.0 2.0 0.00 0.00 0.00 25 1013.2
20260902203930 84 84 2.0 2.0 0.00 0.00 0.00 25 1013.2
20260902203429 84 312 6.0 9.0 0.00 0.00 0.00 25 1012.9
20260902202929 84 15 4.0 5.0 0.00 0.00 0.00 25 1012.9
20260902202428 84 44 5.0 6.0 0.00 0.00 0.00 25 1012.9
20260902201929 84 24 5.0 6.0 0.00 0.00 0.00 25 1013.2
20260902201429 84 4 6.0 7.0 0.00 0.00 0.00 25 1013.2
20260902200929 84 346 5.0 7.0 0.00 0.00 0.00 25 1012.9
20260902200428 85 294 3.0 5.0 0.00 0.00 0.00 24 1013.2
20260902195929 85 18 4.0 5.0 0.00 0.00 0.00 24 1013.2
20260902195428 85 80 4.0 6.0 0.00 0.00 0.00 24 1012.9
20260902194928 85 356 5.0 7.0 0.00 0.00 0.00 24 1013.2
20260902194428 85 42 4.0 6.0 0.00 0.00 0.00 24 1013.2
20260902193929 85 11 4.0 6.0 0.00 0.00 0.00 24 1013.2
20260902193429 85 46 5.0 7.0 0.00 0.00 0.00 24 1013.2
20260902192929 85 8 5.0 6.0 0.00 0.00 0.00 24 1013.2
20260902192428 85 2 6.0 8.0 0.00 0.00 0.00 24 1013.2
20260902191934 85 17 3.0 6.0 0.00 0.00 0.00 24 1013.2
20260902191429 85 314 3.0 5.0 0.00 0.00 0.00 24 1012.9
20260902190929 85 340 5.0 7.0 0.00 0.00 0.00 24 1013.2
20260902190428 85 74 3.0 3.0 0.00 0.00 0.00 24 1013.2
20260902185929 85 40 2.0 3.0 0.00 0.00 0.00 24 1013.2
20260902185429 85 77 2.0 2.0 0.00 0.00 0.00 24 1013.2
20260902184928 85 39 3.0 6.0 0.00 0.00 0.00 23 1013.2
20260902184431 85 12 6.0 7.0 0.00 0.00 0.00 23 1013.2
20260902183928 85 325 4.0 6.0 0.00 0.00 0.00 24 1013.2
20260902183428 86 24 6.0 7.0 0.00 0.00 0.00 24 1013.2
20260902182928 86 40 8.0 10.0 0.00 0.00 0.00 23 1012.9
20260902182428 86 77 7.0 8.0 0.00 0.00 0.00 23 1012.9
20260902181929 86 307 9.0 10.0 0.00 0.00 0.00 23 1012.9
20260902181429 86 346 2.0 2.0 0.00 0.00 0.00 23 1012.9
20260902180929 86 336 3.0 5.0 0.00 0.00 0.00 23 1012.9
20260902180430 86 324 6.0 8.0 0.00 0.00 0.00 23 1012.9
20260902175932 86 10 5.0 9.0 0.00 0.00 0.00 23 1012.9
20260902175429 86 32 5.0 7.0 0.00 0.00 0.00 23 1012.5
20260902174928 87 323 7.0 8.0 0.00 0.00 0.00 22 1012.9
20260902174429 86 351 7.0 10.0 0.00 0.00 0.00 22 1012.9
20260902173929 86 359 4.0 6.0 0.00 0.00 0.00 23 1012.5
20260902173428 86 354 5.0 8.0 0.00 0.00 0.00 22 1012.5
20260902172928 87 82 1.0 1.0 0.00 0.00 0.00 22 1012.5
20260902172429 87 82 3.0 5.0 0.00 0.00 0.00 22 1012.5
20260902171930 87 128 1.0 1.0 0.00 0.00 0.00 22 1012.2
20260902171430 87 347 2.0 2.0 0.00 0.00 0.00 22 1012.2
20260902170930 87 349 3.0 3.0 0.00 0.00 0.00 22 1012.5
20260902170428 87 10 3.0 3.0 0.00 0.00 0.00 22 1012.2
20260902165929 87 29 3.0 3.0 0.00 0.00 0.00 22 1012.2
20260902165430 87 49 1.0 2.0 0.00 0.00 0.00 22 1012.2
20260902164932 87 32 3.0 3.0 0.00 0.00 0.00 22 1011.9
20260902164429 87 352 3.0 3.0 0.00 0.00 0.00 22 1012.2
20260902163929 88 22 2.0 3.0 0.00 0.00 0.00 22 1011.9
20260902163428 88 34 2.0 2.0 0.00 0.00 0.00 22 1011.9
20260902162928 88 21 2.0 2.0 0.00 0.00 0.00 22 1011.9
20260902162429 88 7 4.0 5.0 0.00 0.00 0.00 22 1011.9
20260902161929 88 29 2.0 3.0 0.00 0.00 0.00 22 1011.9
20260902161428 88 26 2.0 2.0 0.00 0.00 0.00 21 1011.9
20260902160929 89 40 0.0 1.0 0.00 0.00 0.00 21 1011.9
20260902160429 89 339 1.0 1.0 0.00 0.00 0.00 22 1011.9
20260902155929 89 315 1.0 1.0 0.00 0.00 0.00 22 1011.9
20260902155429 89 326 1.0 1.0 0.00 0.00 0.00 21 1011.5
20260902154929 90 316 1.0 2.0 0.00 0.00 0.00 21 1011.9
20260902154429 91 18 1.0 1.0 0.00 0.00 0.00 21 1011.9
20260902153932 91 19 1.0 1.0 0.00 0.00 0.00 21 1011.9
20260902153429 92 20 0.0 0.0 0.00 0.00 0.00 20 1011.9
20260902152928 93 22 0.0 0.0 0.00 0.00 0.00 20 1012.2
20260902152429 94 40 2.0 2.0 0.00 0.00 0.00 18 1011.9
20260902151929 95 95 0.0 0.0 0.00 0.00 0.00 19 1011.9
20260902151429 96 95 1.0 1.0 0.00 0.00 0.00 17 1011.9
20260902150929 96 217 0.0 0.0 0.00 0.00 0.00 17 1012.2
20260902150429 95 218 0.0 0.0 0.00 0.00 0.00 18 1012.2
20260902145929 94 192 0.0 0.0 0.00 0.00 0.00 18 1012.2
20260902145429 94 134 0.0 0.0 0.00 0.00 0.00 18 1011.9
20260902144929 95 129 1.0 2.0 0.00 0.00 0.00 18 1012.2
20260902144428 96 199 1.0 1.0 0.00 0.00 0.00 18 1012.2
20260902143928 95 86 1.0 1.0 0.00 0.00 0.00 18 1012.2
20260902143429 95 175 1.0 0.0 0.00 0.00 0.00 19 1012.2
20260902142929 95 115 2.0 1.0 0.00 0.00 0.00 18 1012.5
20260902142428 95 186 0.0 0.0 0.00 0.00 0.00 18 1012.2
20260902141931 95 201 2.0 2.0 0.00 0.00 0.00 17 1012.2
20260902141429 98 132 3.0 3.0 0.00 0.00 0.00 17 1012.2
20260902140929 97 190 0.0 0.0 0.00 0.00 0.00 17 1012.2
20260902140429 97 214 1.0 1.0 0.00 0.00 0.00 18 1012.5
20260902135928 96 208 0.0 0.0 0.00 0.00 0.00 17 1012.5
20260902135429 95 250 1.0 1.0 0.00 0.00 0.00 17 1012.5
20260902134930 95 230 1.0 1.0 0.00 0.00 0.00 17 1012.2
20260902134428 95 293 3.0 3.0 0.00 0.00 0.00 17 1012.2
20260902133928 95 336 3.0 3.0 0.00 0.00 0.00 18 1012.5
20260902133428 96 180 1.0 2.0 0.00 0.00 0.00 17 1012.9
20260902132928 95 271 2.0 2.0 0.00 0.00 0.00 17 1012.2
20260902132430 95 200 5.0 6.0 0.00 0.00 0.00 18 1012.5
20260902131928 96 184 3.0 2.0 0.00 0.00 0.00 18 1012.5
20260902131428 96 171 2.0 2.0 0.00 0.00 0.00 18 1012.5
20260902130929 96 256 1.0 1.0 0.00 0.00 0.00 18 1012.5
20260902130429 96 292 3.0 2.0 0.00 0.00 0.00 17 1012.5
20260902125928 94 220 2.0 3.0 0.00 0.00 0.00 18 1012.5
20260902125430 95 197 3.0 3.0 0.00 0.00 0.00 17 1012.9
20260902124929 94 168 4.0 6.0 0.00 0.00 0.00 18 1012.5
20260902124428 94 190 6.0 8.0 0.00 0.00 0.00 17 1012.9
20260902123929 94 254 4.0 6.0 0.00 0.00 0.00 18 1012.9
20260902123429 95 197 3.0 5.0 0.00 0.00 0.00 17 1012.5
20260902122929 95 309 6.0 6.0 0.00 0.00 0.00 17 1012.5
20260902122429 95 189 3.0 3.0 0.00 0.00 0.00 17 1012.9
20260902121929 95 228 3.0 3.0 0.00 0.00 0.00 19 1012.9
20260902121429 94 263 1.0 1.0 0.00 0.00 0.00 19 1012.9
20260902120928 95 173 3.0 3.0 0.00 0.00 0.00 18 1012.9
20260902120428 94 206 3.0 3.0 0.00 0.00 0.00 19 1012.9
20260902115930 95 209 6.0 7.0 0.00 0.00 0.00 19 1012.9
20260902115428 95 191 3.0 5.0 0.00 0.00 0.00 19 1013.2
20260902114928 95 185 3.0 2.0 0.00 0.00 0.00 18 1013.2
20260902114429 96 180 4.0 5.0 0.00 0.00 0.00 19 1013.2
20260902113929 97 254 1.0 2.0 0.00 0.00 0.00 18 1013.2
20260902113429 96 98 1.0 1.0 0.00 0.00 0.00 18 1013.2
20260902112928 96 143 3.0 3.0 0.00 0.00 0.00 18 1013.2
20260902112429 95 269 1.0 1.0 0.00 0.00 0.00 18 1013.5
20260902111929 95 91 1.0 1.0 0.00 0.00 0.00 18 1013.2
20260902111428 95 152 3.0 3.0 0.00 0.00 0.00 18 1013.5
20260902110929 94 273 2.0 2.0 0.00 0.00 0.00 19 1013.5
20260902110429 93 112 2.0 2.0 0.00 0.00 0.00 20 1013.5
20260902105928 94 91 7.0 8.0 0.00 0.00 0.00 20 1013.5
20260902105429 94 189 2.0 2.0 0.00 0.00 0.00 19 1013.5
20260902104931 94 85 1.0 0.0 0.00 0.00 0.00 20 1013.5
20260902104428 93 161 2.0 3.0 0.00 0.00 0.00 20 1013.9
20260902103928 93 331 2.0 2.0 0.00 0.00 0.00 19 1013.5
20260902103429 93 170 2.0 2.0 0.00 0.00 0.00 19 1013.5
20260902102928 93 98 1.0 2.0 0.00 0.00 0.00 20 1013.9
20260902102429 92 191 2.0 2.0 0.00 0.00 0.00 21 1013.9
20260902101928 92 199 5.0 6.0 0.00 0.00 0.00 21 1013.9
20260902101432 92 226 3.0 5.0 0.00 0.00 0.00 21 1013.9
20260902100929 93 161 3.0 5.0 0.00 0.00 0.00 22 1013.9
20260902100429 92 236 0.0 1.0 0.00 0.00 0.00 21 1013.9
20260902095928 92 194 3.0 3.0 0.00 0.00 0.00 21 1014.2
20260902095429 92 213 3.0 5.0 0.00 0.00 0.00 21 1013.9
20260902094928 92 109 4.0 5.0 0.00 0.00 0.00 21 1013.9
20260902094433 92 182 3.0 3.0 0.00 0.00 0.00 21 1014.2
20260902093928 91 167 2.0 2.0 0.00 0.00 0.00 21 1014.2
20260902093429 91 140 2.0 2.0 0.00 0.00 0.00 21 1014.2
20260902092929 91 270 2.0 3.0 0.00 0.00 0.00 22 1013.9
20260902092428 91 243 0.0 1.0 0.00 0.00 0.00 21 1013.9
20260902091929 91 156 2.0 3.0 0.00 0.00 0.00 21 1014.2
20260902091428 91 229 2.0 2.0 0.00 0.00 0.00 21 1014.2
20260902090441 91 201 4.0 6.0 0.00 0.00 0.00 24 1014.2
20260902085928 90 152 2.0 2.0 0.00 0.00 0.00 23 1014.2
20260902085428 90 207 3.0 2.0 0.00 0.00 0.00 23 1014.2
20260902084929 91 203 5.0 6.0 0.00 0.00 0.00 22 1014.2
20260902084429 91 91 3.0 5.0 0.00 0.00 0.00 24 1014.2
20260902083928 91 125 1.0 1.0 0.00 0.00 0.00 26 1014.2
20260902083428 91 202 1.0 2.0 0.00 0.00 0.00 24 1014.6
20260902082928 91 226 2.0 2.0 0.00 0.00 0.00 23 1014.2
20260902082428 90 129 3.0 3.0 0.00 0.00 0.00 24 1014.2
20260902081928 90 150 1.0 1.0 0.00 0.00 0.00 24 1014.6
20260902081428 89 92 2.0 3.0 0.00 0.00 0.00 25 1014.6
20260902080928 90 125 3.0 5.0 0.00 0.00 0.00 24 1014.9
20260902080429 89 194 2.0 2.0 0.00 0.00 0.00 24 1014.9
20260902075928 88 161 4.0 6.0 0.00 0.00 0.00 25 1014.6
20260902075428 89 180 2.0 2.0 0.00 0.00 0.00 26 1014.6
20260902074928 89 179 4.0 5.0 0.00 0.00 0.00 27 1014.6
20260902074429 88 74 3.0 3.0 0.00 0.00 0.00 29 1014.6
20260902073930 88 148 3.0 5.0 0.00 0.00 0.00 29 1014.6
20260902073428 88 136 1.0 1.0 0.00 0.00 0.00 29 1014.6
20260902072929 88 242 1.0 1.0 0.00 0.00 0.00 30 1014.6
20260902072428 88 214 2.0 3.0 0.00 0.00 0.00 29 1014.6
20260902071928 88 187 3.0 3.0 0.00 0.00 0.00 31 1014.2
20260902071429 88 76 2.0 2.0 0.00 0.00 0.00 30 1014.6
20260902070928 88 157 3.0 6.0 0.00 0.00 0.00 30 1014.6
20260902070428 88 183 2.0 3.0 0.00 0.00 0.00 30 1014.2
20260902065929 88 200 2.0 2.0 0.00 0.00 0.00 31 1014.2
20260902065428 88 216 2.0 2.0 0.00 0.00 0.00 30 1014.2
20260902064931 88 156 0.0 0.0 0.00 0.00 0.00 30 1014.2
20260902064432 88 127 1.0 1.0 0.00 0.00 0.00 31 1014.2
20260902063929 87 123 1.0 1.0 0.00 0.00 0.00 32 1014.2
20260902063429 87 113 1.0 1.0 0.00 0.00 0.00 32 1014.2
20260902062928 87 196 3.0 3.0 0.00 0.00 0.00 31 1014.2
20260902062428 86 140 2.0 3.0 0.00 0.00 0.00 32 1014.6
20260902061929 86 89 3.0 5.0 0.00 0.00 0.00 33 1014.6
20260902061429 86 228 2.0 5.0 0.00 0.00 0.00 30 1014.6
20260902060929 86 81 6.0 7.0 0.00 0.00 0.00 30 1014.2
20260902060430 86 212 1.0 1.0 0.00 0.00 0.00 29 1014.6
20260902055928 85 81 3.0 3.0 0.00 0.00 0.00 30 1014.2
20260902055429 85 71 3.0 3.0 0.00 0.00 0.00 30 1014.2
20260902054930 86 79 5.0 6.0 0.00 0.00 0.00 29 1014.2
20260902054429 85 189 0.0 0.0 0.00 0.00 0.00 31 1014.2
20260902053930 85 149 1.0 1.0 0.00 0.00 0.00 31 1014.2
20260902053429 84 66 1.0 1.0 0.00 0.00 0.00 31 1014.2
20260902052929 83 75 2.0 3.0 0.00 0.00 0.00 31 1014.2
20260902052428 82 96 4.0 5.0 0.00 0.00 0.00 32 1014.2
20260902051930 82 80 4.0 5.0 0.00 0.00 0.00 33 1014.2
20260902051429 82 37 0.0 0.0 0.00 0.00 0.00 31 1014.6
20260902050928 83 105 8.0 9.0 0.00 0.00 0.00 28 1014.2
20260902050428 83 64 3.0 3.0 0.00 0.00 0.00 28 1014.2
20260902045929 83 90 1.0 1.0 0.00 0.00 0.00 28 1014.2
20260902045428 82 88 0.0 0.0 0.00 0.00 0.00 28 1014.2
20260902044929 82 76 3.0 5.0 0.00 0.00 0.00 29 1014.2
20260902044430 81 77 2.0 2.0 0.00 0.00 0.00 29 1014.2
20260902043928 80 66 5.0 6.0 0.00 0.00 0.00 30 1014.2
20260902043428 81 82 6.0 7.0 0.00 0.00 0.00 30 1014.2
20260902042929 80 90 1.0 1.0 0.00 0.00 0.00 30 1014.2
20260902042429 80 65 3.0 3.0 0.00 0.00 0.00 31 1013.9
20260902041928 79 89 1.0 1.0 0.00 0.00 0.00 31 1014.2
20260902041430 79 129 1.0 1.0 0.00 0.00 0.00 32 1014.2
20260902040929 78 71 3.0 3.0 0.00 0.00 0.00 33 1014.2
20260902040429 77 78 5.0 6.0 0.00 0.00 0.00 33 1013.9
20260902035930 77 103 3.0 6.0 0.00 0.00 0.00 34 1013.9
20260902035433 77 99 5.0 7.0 0.00 0.00 0.00 34 1013.9
20260902034929 76 108 0.0 0.0 0.00 0.00 0.00 35 1013.9
20260902034428 76 100 1.0 1.0 0.00 0.00 0.00 36 1014.2
20260902033928 76 165 0.0 1.0 0.00 0.00 0.00 36 1013.9
20260902033428 75 91 1.0 1.0 0.00 0.00 0.00 37 1013.9
20260902032930 74 156 1.0 0.0 0.00 0.00 0.00 38 1013.9
20260902032434 74 107 2.0 2.0 0.00 0.00 0.00 40 1013.5
20260902031928 74 190 0.0 0.0 0.00 0.00 0.00 40 1013.5
20260902031428 74 164 0.0 0.0 0.00 0.00 0.00 40 1013.5
20260902030930 74 133 0.0 0.0 0.00 0.00 0.00 40 1013.5
20260902030428 74 135 0.0 0.0 0.00 0.00 0.00 41 1013.9
20260902025928 74 150 0.0 0.0 0.00 0.00 0.00 41 1013.5
20260902025429 74 116 0.0 0.0 0.00 0.00 0.00 41 1013.9
20260902024928 74 148 0.0 0.0 0.00 0.00 0.00 41 1013.9
20260902024430 74 205 3.0 5.0 0.00 0.00 0.00 41 1013.5
20260902023929 74 175 1.0 1.0 0.00 0.00 0.00 41 1013.5
20260902023430 75 175 1.0 1.0 0.00 0.00 0.00 40 1013.5
20260902022929 75 162 0.0 0.0 0.00 0.00 0.00 40 1013.5
20260902022428 75 96 0.0 0.0 0.00 0.00 0.00 40 1013.5
20260902021929 75 87 0.0 0.0 0.00 0.00 0.00 40 1013.5
20260902021428 74 132 0.0 0.0 0.00 0.00 0.00 41 1013.5
20260902020928 74 79 0.0 0.0 0.00 0.00 0.00 42 1013.5
20260902020428 74 129 0.0 0.0 0.00 0.00 0.00 42 1013.5
20260902015929 75 86 0.0 0.0 0.00 0.00 0.00 41 1013.5
20260902015429 75 85 0.0 0.0 0.00 0.00 0.00 41 1013.5
20260902014928 74 87 0.0 1.0 0.00 0.00 0.00 42 1013.5
20260902014429 74 1 1.0 1.0 0.00 0.00 0.00 43 1013.5
20260902013929 74 271 0.0 0.0 0.00 0.00 0.00 43 1013.5
20260902013428 74 266 0.0 0.0 0.00 0.00 0.00 45 1013.5
20260902012928 74 266 0.0 0.0 0.00 0.00 0.00 45 1013.5
20260902012430 74 292 0.0 0.0 0.00 0.00 0.00 45 1013.5
20260902011929 74 292 0.0 0.0 0.00 0.00 0.00 44 1013.5
20260902011428 74 286 0.0 0.0 0.00 0.00 0.00 45 1013.5
20260902010928 74 286 0.0 0.0 0.00 0.00 0.00 45 1013.9
20260902010428 74 285 1.0 1.0 0.00 0.00 0.00 45 1013.5
20260902005928 74 287 0.0 0.0 0.00 0.00 0.00 45 1013.5
20260902005429 74 282 1.0 1.0 0.00 0.00 0.00 45 1013.5
20260902004928 74 285 3.0 3.0 0.00 0.00 0.00 45 1013.5
20260902004428 74 270 2.0 1.0 0.00 0.00 0.00 45 1013.9
20260902003929 74 259 0.0 0.0 0.00 0.00 0.00 45 1013.2
20260902003430 74 288 1.0 1.0 0.00 0.00 0.00 45 1013.5
20260902002928 74 281 2.0 2.0 0.00 0.00 0.00 45 1013.5
20260902002428 74 237 1.0 1.0 0.00 0.00 0.00 45 1013.5
20260902001929 75 268 1.0 2.0 0.00 0.00 0.00 44 1013.5
20260902001429 75 248 1.0 1.0 0.00 0.00 0.00 44 1013.5
20260902000932 75 249 0.0 0.0 0.00 0.00 0.00 44 1013.5
20260902000430 75 289 2.0 3.0 0.00 0.00 0.00 44 1013.5
20260901235929 76 242 3.0 3.0 0.00 0.00 0.00 43 1013.5
20260901235431 77 284 1.0 1.0 0.00 0.00 0.00 41 1013.5
20260901234928 77 231 0.0 0.0 0.00 0.00 0.00 42 1013.5
20260901234429 79 232 1.0 1.0 0.00 0.00 0.00 39 1013.5
20260901233928 79 43 1.0 2.0 0.00 0.00 0.00 37 1013.2
20260901233435 79 63 2.0 3.0 0.00 0.00 0.00 37 1013.2
20260901232930 79 29 2.0 2.0 0.00 0.00 0.00 37 1013.2
20260901232428 79 6 3.0 3.0 0.00 0.00 0.00 37 1013.5
20260901231928 79 48 2.0 2.0 0.00 0.00 0.00 38 1013.2
20260901231428 79 35 2.0 2.0 0.00 0.00 0.00 38 1013.5
20260901230929 79 350 2.0 3.0 0.00 0.00 0.00 38 1013.2
20260901230429 79 42 2.0 2.0 0.00 0.00 0.00 38 1013.2
20260901225929 79 18 3.0 3.0 0.00 0.00 0.00 39 1013.2
20260901225428 79 344 2.0 2.0 0.00 0.00 0.00 38 1013.2
20260901224929 79 8 2.0 3.0 0.00 0.00 0.00 38 1013.2
20260901224428 79 70 2.0 3.0 0.00 0.00 0.00 38 1013.2
20260901223929 79 42 3.0 3.0 0.00 0.00 0.00 38 1013.2
20260901223428 79 337 2.0 2.0 0.00 0.00 0.00 39 1013.2
20260901222929 79 68 2.0 2.0 0.00 0.00 0.00 39 1013.5
20260901222428 80 38 1.0 1.0 0.00 0.00 0.00 39 1013.5
20260901221930 80 13 4.0 7.0 0.00 0.00 0.00 39 1013.5
20260901221428 80 84 4.0 6.0 0.00 0.00 0.00 39 1013.2
20260901220930 80 43 4.0 5.0 0.00 0.00 0.00 39 1013.2
20260901220428 80 65 3.0 3.0 0.00 0.00 0.00 39 1013.5
20260901215928 80 60 2.0 3.0 0.00 0.00 0.00 39 1013.2